TimeEST,TemperatureF,Dew PointF,Humidity,Sea Level PressureIn,VisibilityMPH,Wind Direction,Wind SpeedMPH,Gust SpeedMPH,PrecipitationIn,Events,Conditions,WindDirDegrees,DateUTC
12:54 AM,48.9,48.0,97,30.04,2.5,SW,3.5,-,N/A,,Overcast,230,2012-12-09 05:54:00
1:06 AM,48.2,48.2,100,30.04,3.0,West,3.5,-,N/A,,Overcast,280,2012-12-09 06:06:00
1:31 AM,48.2,46.4,93,30.04,2.5,Calm,Calm,-,N/A,,Overcast,0,2012-12-09 06:31:00
1:40 AM,46.4,46.4,100,30.04,1.5,Calm,Calm,-,N/A,,Overcast,0,2012-12-09 06:40:00
1:54 AM,46.9,46.9,100,30.05,1.0,Calm,Calm,-,N/A,,Overcast,0,2012-12-09 06:54:00
2:05 AM,46.4,46.4,100,30.05,0.8,Calm,Calm,-,N/A,,Overcast,0,2012-12-09 07:05:00
2:16 AM,48.2,46.4,93,30.05,1.2,Calm,Calm,-,N/A,,Overcast,0,2012-12-09 07:16:00
2:40 AM,46.4,46.4,100,30.07,0.8,Calm,Calm,-,N/A,,Overcast,0,2012-12-09 07:40:00
2:49 AM,46.4,44.6,93,30.06,0.2,Calm,Calm,-,N/A,Fog,Fog,0,2012-12-09 07:49:00
2:54 AM,46.9,46.0,97,30.06,0.5,Calm,Calm,-,N/A,Fog,Fog,0,2012-12-09 07:54:00
3:33 AM,46.4,46.4,100,30.07,0.5,Calm,Calm,-,N/A,Fog,Fog,0,2012-12-09 08:33:00
3:44 AM,46.4,46.4,100,30.07,0.5,Calm,Calm,-,N/A,Fog,Fog,0,2012-12-09 08:44:00
3:54 AM,46.0,46.0,100,30.07,0.2,Calm,Calm,-,N/A,Fog,Fog,0,2012-12-09 08:54:00
4:10 AM,46.4,46.4,100,30.08,0.2,Calm,Calm,-,N/A,Fog,Fog,0,2012-12-09 09:10:00
4:54 AM,46.0,46.0,100,30.09,0.2,Calm,Calm,-,N/A,Fog,Fog,0,2012-12-09 09:54:00
5:22 AM,46.4,46.4,100,30.11,0.5,Calm,Calm,-,N/A,Fog,Fog,0,2012-12-09 10:22:00
5:36 AM,46.4,46.4,100,30.12,1.2,Calm,Calm,-,N/A,,Overcast,0,2012-12-09 10:36:00
5:51 AM,46.4,46.4,100,30.13,0.8,North,3.5,-,N/A,,Overcast,10,2012-12-09 10:51:00
5:52 AM,46.9,46.0,97,30.14,0.8,North,3.5,-,N/A,,Overcast,10,2012-12-09 10:52:00
6:43 AM,48.2,46.4,93,30.16,1.2,North,4.6,-,0.00,,Overcast,350,2012-12-09 11:43:00
6:54 AM,48.0,46.9,96,30.17,2.0,Calm,Calm,-,0.00,,Overcast,0,2012-12-09 11:54:00
7:14 AM,48.2,46.4,93,30.18,2.5,NNW,3.5,-,N/A,,Overcast,340,2012-12-09 12:14:00
7:30 AM,46.4,44.6,93,30.18,3.0,NNE,6.9,-,0.01,Rain,Light Rain,20,2012-12-09 12:30:00
7:54 AM,46.9,43.0,86,30.18,6.0,NNE,5.8,-,0.02,Rain,Light Rain,30,2012-12-09 12:54:00
8:54 AM,46.0,43.0,89,30.22,4.0,NNW,6.9,-,0.02,Rain,Rain,340,2012-12-09 13:54:00
9:54 AM,46.0,43.0,89,30.22,5.0,NNE,5.8,-,0.09,Rain,Light Rain,30,2012-12-09 14:54:00
10:54 AM,46.0,44.1,93,30.22,3.0,NNE,4.6,-,0.07,Rain,Rain,30,2012-12-09 15:54:00
11:32 AM,46.4,44.6,93,30.20,4.0,NNE,5.8,-,0.02,Rain,Light Rain,30,2012-12-09 16:32:00
11:51 AM,46.4,44.6,93,30.20,4.0,NNE,4.6,-,0.02,Rain,Light Rain,30,2012-12-09 16:51:00
11:52 AM,46.9,45.0,93,30.19,4.0,NNE,4.6,-,0.02,Rain,Light Rain,30,2012-12-09 16:52:00
12:26 PM,46.4,44.6,93,30.19,4.0,NE,4.6,-,0.01,,Overcast,50,2012-12-09 17:26:00
12:54 PM,46.9,44.1,90,30.17,6.0,ENE,6.9,-,0.01,Rain,Light Rain,60,2012-12-09 17:54:00
1:27 PM,46.4,44.6,93,30.17,7.0,NE,6.9,-,0.00,,Overcast,50,2012-12-09 18:27:00
1:54 PM,46.0,43.0,89,30.17,7.0,ENE,6.9,-,0.00,,Overcast,60,2012-12-09 18:54:00
2:06 PM,44.6,37.4,76,30.16,10.0,ENE,10.4,20.7,0.00,Rain,Light Rain,70,2012-12-09 19:06:00
2:44 PM,42.8,37.4,81,30.17,10.0,East,6.9,-,0.00,,Overcast,80,2012-12-09 19:44:00
2:54 PM,43.0,37.9,82,30.17,10.0,ENE,6.9,-,0.00,,Overcast,60,2012-12-09 19:54:00
3:54 PM,44.1,39.0,82,30.18,10.0,Calm,Calm,-,N/A,,Overcast,0,2012-12-09 20:54:00
4:27 PM,42.8,39.2,87,30.17,10.0,NNE,8.1,-,N/A,,Overcast,30,2012-12-09 21:27:00
4:54 PM,43.0,39.9,89,30.17,10.0,NNE,6.9,-,N/A,,Overcast,30,2012-12-09 21:54:00
5:09 PM,42.8,39.2,87,30.17,8.0,ENE,4.6,-,N/A,,Overcast,60,2012-12-09 22:09:00
5:38 PM,42.8,41.0,93,30.17,2.5,NE,4.6,-,N/A,,Overcast,50,2012-12-09 22:38:00
5:54 PM,42.1,41.0,96,30.16,2.0,NE,4.6,-,N/A,,Overcast,50,2012-12-09 22:54:00
6:08 PM,42.8,41.0,93,30.15,2.0,NE,3.5,-,N/A,,Overcast,40,2012-12-09 23:08:00
6:15 PM,42.8,41.0,93,30.15,1.8,NE,3.5,-,N/A,,Overcast,50,2012-12-09 23:15:00
6:31 PM,42.8,42.8,100,30.15,2.0,NE,3.5,-,N/A,,Overcast,50,2012-12-09 23:31:00
6:54 PM,43.0,42.1,97,30.14,2.0,NNE,4.6,-,0.01,Rain,Light Rain,30,2012-12-09 23:54:00
7:37 PM,42.8,42.8,100,30.13,3.0,North,4.6,-,0.01,Rain,Light Rain,10,2012-12-10 00:37:00
7:54 PM,43.0,42.1,97,30.12,4.0,NE,4.6,-,0.02,,Overcast,40,2012-12-10 00:54:00
8:16 PM,44.6,42.8,93,30.10,2.5,ENE,5.8,-,N/A,,Overcast,60,2012-12-10 01:16:00
8:40 PM,44.6,42.8,93,30.08,3.0,ENE,3.5,-,0.00,,Overcast,60,2012-12-10 01:40:00
8:47 PM,44.6,42.8,93,30.07,2.5,ENE,4.6,-,0.00,,Overcast,60,2012-12-10 01:47:00
8:54 PM,44.1,43.0,96,30.07,2.5,ENE,4.6,-,0.00,,Overcast,60,2012-12-10 01:54:00
9:08 PM,44.6,42.8,93,30.06,3.0,Calm,Calm,-,N/A,,Overcast,0,2012-12-10 02:08:00
9:40 PM,44.6,44.6,100,30.06,2.0,West,3.5,-,0.01,Rain,Light Rain,260,2012-12-10 02:40:00
9:54 PM,45.0,44.1,97,30.05,2.0,Calm,Calm,-,0.04,Rain,Rain,0,2012-12-10 02:54:00
10:16 PM,44.6,44.6,100,30.04,3.0,Calm,Calm,-,0.03,Rain,Light Rain,0,2012-12-10 03:16:00
10:54 PM,45.0,44.1,97,30.03,4.0,NNW,3.5,-,0.04,Rain,Light Rain,340,2012-12-10 03:54:00
11:20 PM,44.6,44.6,100,30.02,2.5,NW,3.5,-,0.01,Rain,Light Rain,310,2012-12-10 04:20:00
11:30 PM,44.6,44.6,100,30.01,4.0,Calm,Calm,-,0.01,Rain,Light Rain,0,2012-12-10 04:30:00
11:54 PM,45.0,44.1,97,30.00,3.0,Calm,Calm,-,0.01,,Overcast,0,2012-12-10 04:54:00